Volver al catálogo

STARLINK-4778

ActivoComunicacionesVLEO
NORAD 53836·PAYLOAD·🇺🇸 United States

Lanzado Sep 19, 2022 desde Cape Canaveral Space Force Station

Loading…

Próximos Pases (próximas 24 horas)

TLE

ActualizadoSource: CelesTrak SupGP

Época: Sep 14, 2026, 21:54 UTC

1 53836C 22114U   26257.91298611  .00634960  00000+0  22779-1 0  2576
2 53836  53.1593 140.1459 0001476  92.6468 332.6625 15.27844129    11

Sigue STARLINK-4778 en tiempo real con AllMySat

Download on the App Store